Location: Rodson Ranch
(38.7188°N, 119.3202°W)
Time: 17:15:52
(UTC+00:00)

Meteor 2-10 Rocket - Pass Details

Date: 29 October 2020
Orbit: 733 x 885 km, 81.2° (Epoch: 22 November)

Event Time Altitude Azimuth Distance (km) Brightness Sun altitude
Rises 13:10:42 0° 353° (N) 3,171 6.6 -14.4°
Reaches altitude 10° 13:13:02 10° 356° (N) 2,250 5.8 -13.9°
Maximum altitude 13:18:03 70° 80° (E) 795 3.8 -12.9°
Drops below altitude 10° 13:23:10 10° 164° (SSE) 2,293 6.3 -12.0°
Sets 13:25:33 0° 167° (SSE) 3,236 7.0 -11.5°
